Microsoft Windows Vista Community Forums - Vistaheads
Recommended Download



Welcome to the Microsoft Windows Vista Community Forums - Vistaheads, YOUR Largest Resource for Windows Vista related information.

You are currently viewing our boards as a guest which gives you limited access to view most discussions and access our other features. By joining our free community you will have access to post topics, communicate privately with other members (PM), respond to polls, upload content and access many other special features. Registration is fast, simple and absolutely free so , join our community today!

If you have any problems with the registration process or your account login, please contact us.

Driver Scanner

Updates failing before loading

microsoft.public.windowsupdate






Speedup My PC
Reply
  #1 (permalink)  
Old 08-26-2008
Mooseman2008
 

Posts: n/a
Updates failing before loading
when I run Windows update, I get the following:

"The website has encountered a problem and cannot display the page you are
trying to view. The options provided below might help you solve the problem.
For self-help options:

Frequently Asked Questions

Find Solutions

Windows Update Newsgroup
For assisted support options:

Microsoft Online Assisted Support (no-cost for Windows Update issues) "

Here is my update log:

"
===========
2008-08-26 08:30:35:409 1208 90 Misc = Process:
C:\WINDOWS\System32\svchost.exe
2008-08-26 08:30:35:409 1208 90 Misc = Module:
C:\WINDOWS\system32\wuaueng.dll
2008-08-26 08:30:35:409 1208 90 Service *************
2008-08-26 08:30:35:409 1208 90 Service ** START ** Service: Service startup
2008-08-26 08:30:35:409 1208 90 Service *********
2008-08-26 08:30:35:409 1208 90 Agent * WU client version 7.2.6001.784
2008-08-26 08:30:35:409 1208 90 Agent * Base directory:
C:\WINDOWS\SoftwareDistribution
2008-08-26 08:30:35:409 1208 90 Agent * Access type: No proxy
2008-08-26 08:30:35:409 1208 90 Agent * Network state: Connected
2008-08-26 08:30:41:582 1208 90 Report *********** Report: Initializing
static reporting data ***********
2008-08-26 08:30:41:582 1208 90 Report * OS Version = 5.1.2600.3.0.65792
2008-08-26 08:30:41:629 1208 90 Report * Computer Brand = HP Pavilion 061
2008-08-26 08:30:41:629 1208 90 Report * Computer Model = RJ181AA-ABA
a1600n
2008-08-26 08:30:41:629 1208 90 Report * Bios Revision = 3.06
2008-08-26 08:30:41:629 1208 90 Report * Bios Name = Phoenix - AwardBIOS
v6.00PG
2008-08-26 08:30:41:629 1208 90 Report * Bios Release Date =
2006-07-14T00:00:00
2008-08-26 08:30:41:629 1208 90 Report * Locale ID = 1033
2008-08-26 08:30:41:645 1208 90 AU ########### AU: Uninitializing
Automatic Updates ###########
2008-08-26 08:30:41:645 1208 90 Service *********
2008-08-26 08:30:41:645 1208 90 Service ** END ** Service: Service exit
[Exit code = 0x240001]
2008-08-26 08:30:41:645 1208 90 Service *************
2008-08-26 08:30:42:285 1208 f44 Misc =========== Logging initialized
(build: 7.2.6001.784, tz: -0500) ===========
2008-08-26 08:30:42:285 1208 f44 Misc = Process:
C:\WINDOWS\System32\svchost.exe
2008-08-26 08:30:42:285 1208 f44 Misc = Module:
C:\WINDOWS\system32\wuaueng.dll
2008-08-26 08:30:42:285 1208 f44 Service *************
2008-08-26 08:30:42:285 1208 f44 Service ** START ** Service: Service startup
2008-08-26 08:30:42:285 1208 f44 Service *********
2008-08-26 08:30:42:285 1208 f44 Agent * WU client version 7.2.6001.784
2008-08-26 08:30:42:285 1208 f44 Agent * Base directory:
C:\WINDOWS\SoftwareDistribution
2008-08-26 08:30:42:285 1208 f44 Agent * Access type: No proxy
2008-08-26 08:30:42:285 1208 f44 Agent * Network state: Connected
2008-08-26 08:31:04:835 1208 c28 Agent *********** Agent: Initializing
Windows Update Agent ***********
2008-08-26 08:31:04:835 1208 c28 Agent *********** Agent: Initializing
global settings cache ***********
2008-08-26 08:31:04:835 1208 c28 Agent * WSUS server: <NULL>
2008-08-26 08:31:04:835 1208 c28 Agent * WSUS status server: <NULL>
2008-08-26 08:31:04:835 1208 c28 Agent * Target group: (Unassigned
Computers)
2008-08-26 08:31:04:835 1208 c28 Agent * Windows Update access disabled: No
2008-08-26 08:31:05:007 1208 f44 Report *********** Report: Initializing
static reporting data ***********
2008-08-26 08:31:05:007 1208 f44 Report * OS Version = 5.1.2600.3.0.65792
2008-08-26 08:31:05:069 1208 f44 Report * Computer Brand = HP Pavilion 061
2008-08-26 08:31:05:069 1208 f44 Report * Computer Model = RJ181AA-ABA
a1600n
2008-08-26 08:31:05:069 1208 f44 Report * Bios Revision = 3.06
2008-08-26 08:31:05:085 1208 f44 Report * Bios Name = Phoenix - AwardBIOS
v6.00PG
2008-08-26 08:31:05:085 1208 f44 Report * Bios Release Date =
2006-07-14T00:00:00
2008-08-26 08:31:05:085 1208 f44 Report * Locale ID = 1033
2008-08-26 08:31:06:601 1208 c28 DnldMgr Download manager restoring 0
downloads
2008-08-26 08:31:06:617 1208 c28 Service WARNING: GetUserTokenFromSessionId
failed with error 800704dd for session 0
2008-08-26 08:31:06:617 1528 be4 COMAPI WARNING: Unable to listen to
self-update/shutdown event (hr=0X800704DD)
2008-08-26 08:31:06:617 1528 be4 COMAPI WARNING: Unable to establish
connection to the service. (hr=800704DD)
2008-08-26 08:31:08:007 1208 b58 Service WARNING: GetUserTokenFromSessionId
failed with error 800704dd for session 0
2008-08-26 08:31:08:007 1528 be4 COMAPI WARNING: Unable to listen to
self-update/shutdown event (hr=0X800704DD)
2008-08-26 08:31:08:023 1528 be4 COMAPI WARNING: Unable to establish
connection to the service. (hr=800704DD)
2008-08-26 08:31:14:274 1208 b58 Service WARNING: GetUserTokenFromSessionId
failed with error 800704dd for session 0
2008-08-26 08:31:14:274 1528 be4 COMAPI WARNING: Unable to listen to
self-update/shutdown event (hr=0X800704DD)
2008-08-26 08:31:14:274 1528 be4 COMAPI WARNING: Unable to establish
connection to the service. (hr=800704DD)
2008-08-26 08:31:16:930 1528 be4 Misc Validating signature for
C:\WINDOWS\SoftwareDistribution\WuRedir\9482F4B4-E343-43B6-B170-9A65BC822C77\muv3wuredir.cab:
2008-08-26 08:31:16:946 1528 be4 Misc Microsoft signed: Yes
2008-08-26 08:31:17:118 1528 be4 Misc Validating signature for
C:\WINDOWS\SoftwareDistribution\WuRedir\9482F4B4-E343-43B6-B170-9A65BC822C77\muv3wuredir.cab:
2008-08-26 08:31:17:118 1528 be4 Misc Microsoft signed: Yes
2008-08-26 08:31:17:149 1528 be4 Misc Validating signature for
C:\WINDOWS\SoftwareDistribution\WebSetup\wuident.c ab:
2008-08-26 08:31:17:149 1528 be4 Misc Microsoft signed: Yes
2008-08-26 08:31:17:290 1528 be4 Misc Validating signature for
C:\WINDOWS\SoftwareDistribution\WebSetup\wuident.c ab:
2008-08-26 08:31:17:290 1528 be4 Misc Microsoft signed: Yes
2008-08-26 08:31:17:821 1528 be4 Misc Validating signature for
C:\WINDOWS\SoftwareDistribution\WebSetup\wsus3setu p.cab:
2008-08-26 08:31:17:837 1528 be4 Misc Microsoft signed: Yes
2008-08-26 08:31:17:852 1528 be4 Setup *********** Setup: Checking whether
self-update is required ***********
2008-08-26 08:31:17:852 1528 be4 Setup * Inf file:
C:\WINDOWS\SoftwareDistribution\WebSetup\wsus3setu p.inf
2008-08-26 08:31:17:868 1528 be4 Setup Update NOT required for
C:\WINDOWS\system32\wuweb.dll: target version = 7.2.6001.784, required
version = 7.0.6000.381
2008-08-26 08:31:17:868 1528 be4 Setup * IsUpdateRequired = No
2008-08-26 08:31:17:899 1528 be4 Misc Validating signature for
C:\WINDOWS\SoftwareDistribution\WuRedir\9482F4B4-E343-43B6-B170-9A65BC822C77\muv3wuredir.cab:
2008-08-26 08:31:17:899 1528 be4 Misc Microsoft signed: Yes
2008-08-26 08:31:18:009 1528 be4 Misc Validating signature for
C:\WINDOWS\SoftwareDistribution\WuRedir\9482F4B4-E343-43B6-B170-9A65BC822C77\muv3wuredir.cab:
2008-08-26 08:31:18:009 1528 be4 Misc Microsoft signed: Yes
2008-08-26 08:31:18:055 1528 be4 Misc Validating signature for
C:\WINDOWS\SoftwareDistribution\WebSetup\wuident.c ab:
2008-08-26 08:31:18:071 1528 be4 Misc Microsoft signed: Yes
2008-08-26 08:31:18:212 1528 be4 Misc Validating signature for
C:\WINDOWS\SoftwareDistribution\WebSetup\wuident.c ab:
2008-08-26 08:31:18:212 1528 be4 Misc Microsoft signed: Yes
2008-08-26 08:31:18:274 1528 be4 Misc Validating signature for
C:\WINDOWS\SoftwareDistribution\WebSetup\wsus3setu p.cab:
2008-08-26 08:31:18:290 1528 be4 Misc Microsoft signed: Yes
2008-08-26 08:31:18:462 1528 be4 Misc Validating signature for
C:\WINDOWS\SoftwareDistribution\WebSetup\wsus3setu p.cab:
2008-08-26 08:31:18:477 1528 be4 Misc Microsoft signed: Yes
2008-08-26 08:31:18:493 1528 be4 Setup *********** Setup: Checking whether
self-update is required ***********
2008-08-26 08:31:18:493 1528 be4 Setup * Inf file:
C:\WINDOWS\SoftwareDistribution\WebSetup\wsus3setu p.inf
2008-08-26 08:31:18:509 1528 be4 Setup Update NOT required for
C:\WINDOWS\system32\cdm.dll: target version = 7.2.6001.784, required version
= 7.2.6001.784
2008-08-26 08:31:18:509 1528 be4 Setup Update NOT required for
C:\WINDOWS\system32\wuapi.dll: target version = 7.2.6001.784, required
version = 7.2.6001.784
2008-08-26 08:31:18:509 1528 be4 Setup Update NOT required for
C:\WINDOWS\system32\wuapi.dll.mui: target version = 7.2.6001.784, required
version = 7.2.6001.784
2008-08-26 08:31:18:509 1528 be4 Setup Update NOT required for
C:\WINDOWS\system32\wuauclt.exe: target version = 7.2.6001.784, required
version = 7.2.6001.784
2008-08-26 08:31:18:509 1528 be4 Setup Update NOT required for
C:\WINDOWS\system32\wuaucpl.cpl: target version = 7.2.6001.784, required
version = 7.2.6001.784
2008-08-26 08:31:18:524 1528 be4 Setup Update NOT required for
C:\WINDOWS\system32\wuaucpl.cpl.mui: target version = 7.2.6001.784, required
version = 7.2.6001.784
2008-08-26 08:31:18:524 1528 be4 Setup Update NOT required for
C:\WINDOWS\system32\wuaueng.dll: target version = 7.2.6001.784, required
version = 7.2.6001.784
2008-08-26 08:31:18:524 1528 be4 Setup Update NOT required for
C:\WINDOWS\system32\wuaueng.dll.mui: target version = 7.2.6001.784, required
version = 7.2.6001.784
2008-08-26 08:31:18:524 1528 be4 Setup Update NOT required for
C:\WINDOWS\system32\wucltui.dll: target version = 7.2.6001.784, required
version = 7.2.6001.784
2008-08-26 08:31:18:524 1528 be4 Setup Update NOT required for
C:\WINDOWS\system32\wucltui.dll.mui: target version = 7.2.6001.784, required
version = 7.2.6001.784
2008-08-26 08:31:18:524 1528 be4 Setup Update NOT required for
C:\WINDOWS\system32\wups.dll: target version = 7.2.6001.784, required version
= 7.2.6001.784
2008-08-26 08:31:18:524 1528 be4 Setup Update NOT required for
C:\WINDOWS\system32\wups2.dll: target version = 7.2.6001.784, required
version = 7.2.6001.784
2008-08-26 08:31:18:524 1528 be4 Setup * IsUpdateRequired = No
2008-08-26 08:31:20:290 1528 be4 COMAPI ----------- COMAPI:
IUpdateServiceManager::AddService -----------
2008-08-26 08:31:20:290 1528 be4 COMAPI - ServiceId =
{7971f918-a847-4430-9279-4a52d1efe18d}
2008-08-26 08:31:20:290 1528 be4 COMAPI - AuthorizationCabPath =
C:\WINDOWS\SoftwareDistribution\AuthCabs\muauth.ca b
2008-08-26 08:31:20:290 1208 734 Service WARNING: GetUserTokenFromSessionId
failed with error 800704dd for session 0
2008-08-26 08:31:20:290 1528 be4 COMAPI WARNING: Unable to listen to
self-update/shutdown event (hr=0X800704DD)
2008-08-26 08:31:20:290 1528 be4 COMAPI WARNING: Unable to establish
connection to the service. (hr=800704DD)
2008-08-26 08:31:20:290 1528 be4 COMAPI - Exit code = 0x800704DD
2008-08-26 08:31:20:306 1208 f2c Service WARNING: GetUserTokenFromSessionId
failed with error 800704dd for session 0
2008-08-26 08:31:20:306 1528 be4 COMAPI WARNING: Unable to listen to
self-update/shutdown event (hr=0X800704DD)
2008-08-26 08:31:20:306 1528 be4 COMAPI WARNING: Unable to establish
connection to the service. (hr=800704DD)
2008-08-26 08:31:27:307 1208 f44 AU ########### AU: Initializing Automatic
Updates ###########
2008-08-26 08:31:27:369 1208 f44 AU # Approval type: Pre-download notify
(User preference)
2008-08-26 08:31:27:541 1208 f44 AU Obtained Post reboot hr from
Agent:8024000c
2008-08-26 08:31:27:541 1208 f44 AU AU setting pending client directive to
'Forced Reboot'
2008-08-26 08:31:27:541 1208 f44 AU Triggering Offline detection
(non-interactive)
2008-08-26 08:31:27:541 1208 f44 AU AU finished delayed initialization
2008-08-26 08:31:27:541 1208 f44 AU #############
2008-08-26 08:31:27:541 1208 f44 AU ## START ## AU: Search for updates
2008-08-26 08:31:27:541 1208 f44 AU #########
2008-08-26 08:31:27:541 1208 f44 AU <<## SUBMITTED ## AU: Search for updates
[CallId = {0751D077-3683-43D7-B4FE-DA64FADCF523}]
2008-08-26 08:31:27:557 1208 f98 Agent *************
2008-08-26 08:31:27:557 1208 f98 Agent ** START ** Agent: Finding updates
[CallerId = AutomaticUpdates]
2008-08-26 08:31:27:557 1208 f98 Agent *********
2008-08-26 08:31:27:557 1208 f98 Agent * Online = No; Ignore download
priority = No
2008-08-26 08:31:27:557 1208 f98 Agent * Criteria = "IsHidden=0 and
IsInstalled=0 and DeploymentAction='Installation' and IsAssigned=1 or
IsHidden=0 and IsPresent=1 and DeploymentAction='Uninstallation' and
IsAssigned=1 or IsHidden=0 and IsInstalled=1 and
DeploymentAction='Installation' and IsAssigned=1 and RebootRequired=1 or
IsHidden=0 and IsInstalled=0 and DeploymentAction='Uninstallation' and
IsAssigned=1 and RebootRequired=1"
2008-08-26 08:31:27:557 1208 f98 Agent * ServiceID =
{7971F918-A847-4430-9279-4A52D1EFE18D}
2008-08-26 08:31:27:557 1208 f98 Agent * Search Scope = {Machine}
2008-08-26 08:31:35:245 1208 f98 Agent * Added update
{44F3BFC5-1C64-41E2-839D-A91407634BAB}.101 to search result
2008-08-26 08:31:35:245 1208 f98 Agent * Added update
{4CCA8DEF-C5C7-4A19-B75A-2BE59BA0B710}.104 to search result
2008-08-26 08:31:35:245 1208 f98 Agent * Added update
{4C811AB7-3E1C-4D53-A572-61E553D597C9}.100 to search result
2008-08-26 08:31:35:245 1208 f98 Agent * Added update
{973E334F-2ABA-4DE2-B51B-EFB975992C1A}.104 to search result
2008-08-26 08:31:35:245 1208 f98 Agent * Added update
{E7EC15F8-AF04-4745-99E1-2271E868F50C}.103 to search result
2008-08-26 08:31:35:245 1208 f98 Agent * Added update
{D1ABF450-4A72-49DD-BAFE-8AF9E320E133}.104 to search result
2008-08-26 08:31:35:245 1208 f98 Agent * Added update
{6D930EBC-BB1C-4DC5-82F6-C15366AF904A}.102 to search result
2008-08-26 08:31:35:245 1208 f98 Agent * Added update
{C549AD65-F3B3-42E6-B0D7-6FE55576F2BB}.102 to search result
2008-08-26 08:31:35:245 1208 f98 Agent * Added update
{8079EF5C-B355-4C65-8888-8D708BEB2D87}.103 to search result
2008-08-26 08:31:35:245 1208 f98 Agent * Added update
{83C2FDC6-0CD5-4D78-8C06-2203A958B42B}.101 to search result
2008-08-26 08:31:35:245 1208 f98 Agent * Added update
{A6FBA94F-1A6D-4227-BCFF-9674589BC165}.100 to search result
2008-08-26 08:31:35:245 1208 f98 Agent * Added update
{47620E91-691A-48FE-AC2F-632D0CFF11A0}.101 to search result
2008-08-26 08:31:35:245 1208 f98 Agent * Added update
{E9DE22EE-C211-4717-9B93-CA69FA07D2E0}.101 to search result
2008-08-26 08:31:35:245 1208 f98 Agent * Added update
{FFFA30E8-CEF7-4F65-A5C3-978706B8135E}.101 to search result
2008-08-26 08:31:35:245 1208 f98 Agent * Found 14 updates and 41
categories in search; evaluated appl. rules of 423 out of 924 deployed
entities
2008-08-26 08:31:35:511 1208 f98 Agent *********
2008-08-26 08:31:35:511 1208 f98 Agent ** END ** Agent: Finding updates
[CallerId = AutomaticUpdates]
2008-08-26 08:31:35:511 1208 f98 Agent *************
2008-08-26 08:31:35:511 1208 88c AU >>## RESUMED ## AU: Search for updates
[CallId = {0751D077-3683-43D7-B4FE-DA64FADCF523}]
2008-08-26 08:31:35:511 1208 88c AU # 14 updates detected
2008-08-26 08:31:35:542 1208 88c AU #########
2008-08-26 08:31:35:542 1208 88c AU ## END ## AU: Search for updates
[CallId = {0751D077-3683-43D7-B4FE-DA64FADCF523}]
2008-08-26 08:31:35:542 1208 88c AU #############
2008-08-26 08:31:42:543 1208 f44 AU FATAL: CAUClient::Launch failed, error =
0x800704DD
"

Someone know what is going on?






Reply With Quote
Sponsored Links
  #2 (permalink)  
Old 08-26-2008
Mooseman2008
 

Posts: n/a
RE: Updates failing before loading


"Mooseman2008" wrote:

>(SNIP)> Someone know what is going on?
>


Oh, and when I try to run the Update it tells me to "Get Microsoft Update
today" ... I already have that. The web page tells me Automatic updates is
running; however I have not seen an update in weeks so obviously something is
going wrong.
Reply With Quote
  #3 (permalink)  
Old 08-26-2008
PA Bear [MS MVP]
 

Posts: n/a
Re: Updates failing before loading
Error messages that you may receive when you try to download and install
updates from the Windows Update Web site, from the Microsoft Update Web
site, or from a WSUS server: "0x800704DD," "0x80240020," or both:
http://support.microsoft.com/kb/910341
--
~Robear Dyer (PA Bear)
MS MVP-IE, Mail, Security, Windows Desktop Experience - since 2002
AumHa VSOP & Admin http://aumha.net
DTS-L http://dts-l.net/

Mooseman2008 wrote:
> when I run Windows update, I get the following:
>
> "The website has encountered a problem and cannot display the page you are
> trying to view. The options provided below might help you solve the
> problem.

<snip>
> 2008-08-26 08:31:42:543 1208 f44 AU FATAL: CAUClient::Launch failed, error
> =
> 0x800704DD


Reply With Quote
  #4 (permalink)  
Old 08-26-2008
Mooseman2008
 

Posts: n/a
Re: Updates failing before loading


"PA Bear [MS MVP]" wrote:

> Error messages that you may receive when you try to download and install
> updates from the Windows Update Web site, from the Microsoft Update Web
> site, or from a WSUS server: "0x800704DD," "0x80240020," or both:
> http://support.microsoft.com/kb/910341
> --
> ~Robear Dyer (PA Bear)


Made the changes to the registry; I still get the same error messages.
> MS MVP-IE, Mail, Security, Windows Desktop Experience - since 2002
> AumHa VSOP & Admin http://aumha.net
> DTS-L http://dts-l.net/
>
> Mooseman2008 wrote:
> > when I run Windows update, I get the following:
> >
> > "The website has encountered a problem and cannot display the page you are
> > trying to view. The options provided below might help you solve the
> > problem.

> <snip>
> > 2008-08-26 08:31:42:543 1208 f44 AU FATAL: CAUClient::Launch failed, error
> > =
> > 0x800704DD

>
>

Reply With Quote
  #5 (permalink)  
Old 08-26-2008
Mooseman2008
 

Posts: n/a
Re: Updates failing before loading
Yeesh, my reply didn't show up in the previous post...

no this did not help. I still get the same error happening after modifying
the registry as per instructions

"PA Bear [MS MVP]" wrote:

> Error messages that you may receive when you try to download and install
> updates from the Windows Update Web site, from the Microsoft Update Web
> site, or from a WSUS server: "0x800704DD," "0x80240020," or both:
> http://support.microsoft.com/kb/910341
> --
> ~Robear Dyer (PA Bear)
> MS MVP-IE, Mail, Security, Windows Desktop Experience - since 2002
> AumHa VSOP & Admin http://aumha.net
> DTS-L http://dts-l.net/
>
> Mooseman2008 wrote:
> > when I run Windows update, I get the following:
> >
> > "The website has encountered a problem and cannot display the page you are
> > trying to view. The options provided below might help you solve the
> > problem.

> <snip>
> > 2008-08-26 08:31:42:543 1208 f44 AU FATAL: CAUClient::Launch failed, error
> > =
> > 0x800704DD

>
>

Reply With Quote
  #6 (permalink)  
Old 08-26-2008
MowGreen [MVP]
 

Posts: n/a
Re: Updates failing before loading
>> 0x800704DD ERROR_NOT_LOGGED_ON
>> The operation being requested was not performed because the
>> user has not logged on to the network.
>> The specified service does not exist.


The registry changes need to be exact. You can use this reg file to
ensure that they are:
http://lunarsoft.net/forum/lofiversi...php?t2154.html

See the post by Tarun. Reboot after merging the reg file and see if the
system can update.

If not, which firewall and antivirus/security software is being used ?

MowGreen [MVP 2003-2008]
===============
*-343-* FDNY
Never Forgotten
===============



Mooseman2008 wrote:

>
> "PA Bear [MS MVP]" wrote:
>
>
>>Error messages that you may receive when you try to download and install
>>updates from the Windows Update Web site, from the Microsoft Update Web
>>site, or from a WSUS server: "0x800704DD," "0x80240020," or both:
>>http://support.microsoft.com/kb/910341
>>--
>>~Robear Dyer (PA Bear)

>
>
> Made the changes to the registry; I still get the same error messages.
>
>>MS MVP-IE, Mail, Security, Windows Desktop Experience - since 2002
>>AumHa VSOP & Admin http://aumha.net
>>DTS-L http://dts-l.net/
>>
>>Mooseman2008 wrote:
>>
>>>when I run Windows update, I get the following:
>>>
>>>"The website has encountered a problem and cannot display the page you are
>>>trying to view. The options provided below might help you solve the
>>>problem.

>>
>><snip>
>>
>>>2008-08-26 08:31:42:543 1208 f44 AU FATAL: CAUClient::Launch failed, error
>>>=
>>>0x800704DD

>>
>>

Reply With Quote
  #7 (permalink)  
Old 08-26-2008
MowGreen [MVP]
 

Posts: n/a
Re: Updates failing before loading
Your reply *did* show up:
http://www.microsoft.com/communities...=en-us&m=1&p=1

> Made the changes to the registry; I still get the same error messages.


0x800704DD ERROR_NOT_LOGGED_ON
The operation being requested was not performed because the
user has not logged on to the network.
The specified service does not exist.


The registry changes need to be exact. You can use this reg file to
ensure that they are:
http://lunarsoft.net/forum/lofiversi...php?t2154.html

See the post by Tarun. Reboot after merging the reg file and see if the
system can update.

If it can not, which firewall and antivirus/security software is being
used ?

MowGreen [MVP 2003-2008]
===============
*-343-* FDNY
Never Forgotten
===============



Mooseman2008 wrote:

> Yeesh, my reply didn't show up in the previous post...
>
> no this did not help. I still get the same error happening after modifying
> the registry as per instructions
>
> "PA Bear [MS MVP]" wrote:
>
>
>>Error messages that you may receive when you try to download and install
>>updates from the Windows Update Web site, from the Microsoft Update Web
>>site, or from a WSUS server: "0x800704DD," "0x80240020," or both:
>>http://support.microsoft.com/kb/910341
>>--
>>~Robear Dyer (PA Bear)
>>MS MVP-IE, Mail, Security, Windows Desktop Experience - since 2002
>>AumHa VSOP & Admin http://aumha.net
>>DTS-L http://dts-l.net/
>>
>>Mooseman2008 wrote:
>>
>>>when I run Windows update, I get the following:
>>>
>>>"The website has encountered a problem and cannot display the page you are
>>>trying to view. The options provided below might help you solve the
>>>problem.

>>
>><snip>
>>
>>>2008-08-26 08:31:42:543 1208 f44 AU FATAL: CAUClient::Launch failed, error
>>>=
>>>0x800704DD

>>
>>

Reply With Quote
  #8 (permalink)  
Old 08-27-2008
PA Bear [MS MVP]
 

Posts: n/a
Re: Updates failing before loading
What Mow said

Mooseman2008 wrote:
> "PA Bear [MS MVP]" wrote:
>
>> Error messages that you may receive when you try to download and install
>> updates from the Windows Update Web site, from the Microsoft Update Web
>> site, or from a WSUS server: "0x800704DD," "0x80240020," or both:
>> http://support.microsoft.com/kb/910341
>> --
>> ~Robear Dyer (PA Bear)

>
> Made the changes to the registry; I still get the same error messages.
>> MS MVP-IE, Mail, Security, Windows Desktop Experience - since 2002
>> AumHa VSOP & Admin http://aumha.net
>> DTS-L http://dts-l.net/
>>
>> Mooseman2008 wrote:
>>> when I run Windows update, I get the following:
>>>
>>> "The website has encountered a problem and cannot display the page you
>>> are
>>> trying to view. The options provided below might help you solve the
>>> problem.

>> <snip>
>>> 2008-08-26 08:31:42:543 1208 f44 AU FATAL: CAUClient::Launch failed,
>>> error
>>> =
>>> 0x800704DD


Reply With Quote
  #9 (permalink)  
Old 10-06-2008
yachtmangl
 

Posts: n/a
Re: Updates failing before loading
That's the ticket - see the last blog post in the Lunarsoft link (corrected to)
http://www.lunarsoft.net/forums/inde...ic=2154&hl=*.*
Its the mistyping of DLL name - should be W..lowercase"L"..N
thanks to all prior posts .. MS should clarify this


"MowGreen [MVP]" wrote:

> Your reply *did* show up:
> http://www.microsoft.com/communities...=en-us&m=1&p=1
>
> > Made the changes to the registry; I still get the same error messages.

>
> 0x800704DD ERROR_NOT_LOGGED_ON
> The operation being requested was not performed because the
> user has not logged on to the network.
> The specified service does not exist.
>
>
> The registry changes need to be exact. You can use this reg file to
> ensure that they are:
> http://lunarsoft.net/forum/lofiversi...php?t2154.html
>
> See the post by Tarun. Reboot after merging the reg file and see if the
> system can update.
>
> If it can not, which firewall and antivirus/security software is being
> used ?
>
> MowGreen [MVP 2003-2008]
> ===============
> *-343-* FDNY
> Never Forgotten
> ===============
>
>
>
> Mooseman2008 wrote:
>
> > Yeesh, my reply didn't show up in the previous post...
> >
> > no this did not help. I still get the same error happening after modifying
> > the registry as per instructions
> >
> > "PA Bear [MS MVP]" wrote:
> >
> >
> >>Error messages that you may receive when you try to download and install
> >>updates from the Windows Update Web site, from the Microsoft Update Web
> >>site, or from a WSUS server: "0x800704DD," "0x80240020," or both:
> >>http://support.microsoft.com/kb/910341
> >>--
> >>~Robear Dyer (PA Bear)
> >>MS MVP-IE, Mail, Security, Windows Desktop Experience - since 2002
> >>AumHa VSOP & Admin http://aumha.net
> >>DTS-L http://dts-l.net/
> >>
> >>Mooseman2008 wrote:
> >>
> >>>when I run Windows update, I get the following:
> >>>
> >>>"The website has encountered a problem and cannot display the page you are
> >>>trying to view. The options provided below might help you solve the
> >>>problem.
> >>
> >><snip>
> >>
> >>>2008-08-26 08:31:42:543 1208 f44 AU FATAL: CAUClient::Launch failed, error
> >>>=
> >>>0x800704DD
> >>
> >>

>

Reply With Quote
Reply


Thread Tools
Display Modes

Posting Rules
You may not post new threads
You may not post replies
You may not post attachments
You may not edit your posts

vB code is On
Smilies are On
[IMG] code is On
HTML code is Off
Trackbacks are On
Pingbacks are On
Refbacks are Off

Similar Threads
Thread Thread Starter Forum Replies Last Post
All updates failing gm microsoft.public.windowsupdate 3 07-02-2008 03:32
All Updates Failing Tobolate microsoft.public.windowsupdate 3 06-19-2008 18:24
DWM failing on loading Steve F microsoft.public.windows.vista.installation setup 0 05-03-2008 17:41
Failing Updates Gwd_50 microsoft.public.windowsupdate 8 11-28-2007 10:45
All updates are failing... Sublime5o microsoft.public.windowsupdate 1 11-16-2007 07:48




All times are GMT +1. The time now is 17:46.




Driver Scanner - Free Scan Now

Vistaheads.com is part of the Heads Network. See also XPHeads.com , Win7Heads.com and Win8Heads.com.


Design by Vjacheslav Trushkin for phpBBStyles.com.
Powered by vBulletin® Version 3.6.7
Copyright ©2000 - 2014, Jelsoft Enterprises Ltd.
Search Engine Optimization by vBSEO 3.6.0 RC 2

1 2 3 4 5 6 7 8 9 10 11 12 13 14 15 16 17 18 19 20 21 22 23 24 25 26 27 28 29 30 31 32 33 34 35 36 37 38 39 40 41 42 43 44 45 46 47 48 49 50 51 52 53 54 55 56 57 58 59 60 61 62 63 64 65 66 67 68 69 70 71 72 73 74 75 76 77 78 79 80 81 82 83 84 85 86 87 88 89 90 91 92 93 94 95 96 97 98 99 100 101 102 103 104 105 106 107 108 109 110 111 112 113 114 115 116 117 118 119 120